Location: Unspecified
(0.0000°N, 0.0000°E)
Time: 06:35:49
(UTC+00:00)

Vanguard 2 - All Passes

Search period start: 19 June 2018 00:00
Search period end: 29 June 2018 00:00
Orbit: 553 x 2939 km, 32.9° (Epoch: 18 June)

Date Brightness Start Highest point End Pass type
(mag) Time Alt. Az. Time Alt. Az. Time Alt. Az.
19 Jun - 00:57:36 10° WSW 01:09:40 60° NW 01:16:45 10° NE night (unlit)
19 Jun - 09:50:45 10° NNE 09:53:24 13° NE 09:56:33 10° ENE daylight
19 Jun - 11:55:06 10° NW 12:01:49 79° NE 12:13:30 10° ESE daylight
19 Jun - 14:04:21 10° W 14:13:01 37° SSW 14:26:13 10° SE daylight
19 Jun - 16:19:01 10° SW 16:28:01 19° SSW 16:38:44 10° SSE daylight
19 Jun - 18:36:37 10° SSW 18:46:21 17° S 18:55:59 10° SE visible
19 Jun - 20:49:52 10° SSW 21:03:41 28° SSE 21:14:34 10° ESE visible
19 Jun - 23:02:08 10° SW 23:17:25 63° SSE 23:26:48 10° ENE visible
20 Jun - 01:16:42 10° WSW 01:27:35 41° NW 01:34:20 10° NNE visible
20 Jun - 10:07:04 10° N 10:11:19 22° NE 10:17:13 10° E daylight
20 Jun - 12:13:09 10° WNW 12:20:00 74° SSW 12:31:55 10° SE daylight
20 Jun - 14:23:37 10° WSW 14:32:02 28° SSW 14:44:03 10° SSE daylight
20 Jun - 16:39:36 10° SW 16:47:55 16° S 16:57:23 10° SSE daylight
20 Jun - 18:55:34 10° SSW 19:06:26 19° SSE 19:16:50 10° SE visible
20 Jun - 21:07:47 10° SW 21:22:54 35° SSE 21:34:11 10° E visible
20 Jun - 23:20:24 10° SW 23:35:50 82° SE 23:45:05 10° ENE visible
21 Jun - 01:36:21 10° W 01:45:29 28° NW 01:51:37 10° NNE visible
21 Jun - 10:24:13 10° NNW 10:29:10 36° NE 10:36:46 10° ESE daylight
21 Jun - 12:31:29 10° WNW 12:38:25 52° SSW 12:50:03 10° SE daylight
21 Jun - 14:43:20 10° WSW 14:51:16 22° SSW 15:01:51 10° SSE daylight
21 Jun - 17:00:01 10° SSW 17:08:00 15° S 17:16:47 10° SSE daylight
21 Jun - 19:13:58 10° SSW 19:26:17 22° SSE 19:37:41 10° ESE visible
21 Jun - 21:25:42 10° SW 21:41:52 45° SSE 21:53:24 10° E visible
21 Jun - 23:38:56 10° WSW 23:54:03 76° NW 00:03:05 10° NE visible
22 Jun - 01:56:45 10° W 02:03:29 19° NW 02:08:31 10° N visible
22 Jun - 10:41:46 10° NW 10:47:03 59° NE 10:55:43 10° ESE daylight
22 Jun - 12:50:10 10° W 12:57:03 37° SSW 13:07:56 10° SE daylight
22 Jun - 15:03:32 10° SW 15:10:43 18° SSW 15:19:45 10° SSE daylight
22 Jun - 17:19:47 10° SSW 17:28:09 15° S 17:37:09 10° SE daylight
22 Jun - 19:32:02 10° SSW 19:45:53 27° SSE 19:58:10 10° ESE visible
22 Jun - 21:43:42 10° SW 22:00:37 57° SSE 22:12:12 10° ENE visible
22 Jun - 23:57:48 10° WSW 00:12:07 56° NW 00:20:53 10° NE night (unlit)
23 Jun - 02:18:41 10° WNW 02:21:39 12° NW 02:24:15 10° NNW visible
23 Jun - 08:55:14 10° NNE 08:57:01 12° NE 08:59:00 10° ENE daylight
23 Jun - 10:59:39 10° WNW 11:05:05 87° SW 11:14:14 10° SE daylight
23 Jun - 13:09:16 10° WSW 13:15:54 27° SSW 13:25:40 10° SSE daylight
23 Jun - 15:24:05 10° SW 15:30:26 15° S 15:37:56 10° SSE daylight
23 Jun - 17:38:45 10° SSW 17:48:14 17° SSE 17:58:13 10° SE daylight
23 Jun - 19:49:57 10° SSW 20:05:11 33° SSE 20:18:11 10° E visible
23 Jun - 22:01:52 10° SW 22:19:11 73° SE 22:30:41 10° ENE visible
24 Jun - 00:17:07 10° WSW 00:30:06 41° NW 00:38:26 10° NNE night (unlit)
24 Jun - 09:11:24 10° N 09:14:56 22° NE 09:19:30 10° E daylight
24 Jun - 11:17:50 10° WNW 11:23:20 56° SSW 11:32:26 10° SE daylight
24 Jun - 13:28:51 10° WSW 13:34:57 20° SSW 13:43:14 10° SSE daylight
24 Jun - 15:44:37 10° SSW 15:50:19 13° S 15:56:47 10° SSE daylight
24 Jun - 17:57:08 10° SSW 18:08:07 20° SSE 18:19:29 10° ESE daylight
24 Jun - 20:07:50 10° SW 20:24:14 42° SSE 20:37:43 10° E visible
24 Jun - 22:20:13 10° SW 22:37:32 88° NW 22:48:53 10° NE visible
25 Jun - 00:36:59 10° W 00:48:08 29° NW 00:55:45 10° NNE visible
25 Jun - 09:28:38 10° NNW 09:32:49 39° NE 09:38:47 10° ESE daylight
25 Jun - 11:36:23 10° W 11:41:48 36° SSW 11:50:18 10° SE daylight
25 Jun - 13:49:03 10° SW 13:54:12 15° SSW 14:00:40 10° SSE daylight
25 Jun - 16:04:31 10° SSW 16:10:19 13° S 16:16:48 10° SSE daylight
25 Jun - 18:15:10 10° SSW 18:27:45 24° SSE 18:40:29 10° ESE visible
25 Jun - 20:25:45 10° SW 20:43:05 52° SSE 20:56:50 10° ENE visible
25 Jun - 22:38:51 10° WSW 22:55:46 69° NW 23:06:50 10° NE visible
26 Jun - 00:57:34 10° W 01:06:18 21° NW 01:12:46 10° N visible
26 Jun - 09:46:19 10° NW 09:50:44 72° NE 09:57:27 10° ESE daylight
26 Jun - 11:55:23 10° WSW 12:00:29 25° SSW 12:07:54 10° SSE daylight
26 Jun - 14:09:57 10° SSW 14:13:41 12° S 14:17:57 10° SSE daylight
26 Jun - 16:23:25 10° SSW 16:30:18 14° SSE 16:37:59 10° SE daylight
26 Jun - 18:33:00 10° SSW 18:47:07 30° SSE 19:01:00 10° E visible
26 Jun - 20:43:47 10° SW 21:01:43 66° SE 21:15:33 10° ENE visible
26 Jun - 22:57:52 10° WSW 23:13:55 53° NW 23:24:36 10° NE visible
27 Jun - 01:19:15 10° WNW 01:24:41 14° NW 01:29:10 10° N visible
27 Jun - 07:59:03 10° N 08:00:49 12° NE 08:02:41 10° ENE daylight
27 Jun - 10:04:21 10° WNW 10:08:51 64° SSW 10:15:42 10° SE daylight
27 Jun - 12:14:57 10° WSW 12:19:21 17° SSW 12:25:10 10° SSE daylight
27 Jun - 14:31:57 10° S 14:33:20 10° S 14:34:47 10° S daylight
27 Jun - 16:41:37 10° SSW 16:50:09 16° SSE 16:59:43 10° SE daylight
27 Jun - 18:50:48 10° SSW 19:06:12 37° SSE 19:20:59 10° E visible
27 Jun - 21:01:58 10° SW 21:20:12 82° SE 21:33:58 10° ENE visible
27 Jun - 23:17:20 10° WSW 23:32:03 40° NW 23:42:10 10° NNE visible
28 Jun - 08:15:32 10° NNW 08:18:49 24° NE 08:22:40 10° E daylight
28 Jun - 10:22:47 10° W 10:27:09 37° SSW 10:33:35 10° SE daylight
28 Jun - 12:35:28 10° SW 12:38:25 12° SSW 12:41:52 10° S daylight
28 Jun - 16:59:27 10° SSW 17:09:46 20° SSE 17:21:19 10° ESE daylight
28 Jun - 19:08:37 10° SW 19:25:02 47° SSE 19:40:27 10° E visible
28 Jun - 21:20:23 10° WSW 21:38:33 81° NW 21:52:07 10° NE visible
